Location: *
(32.8140°S, 174.6161°E)
Time: 05:38:27
(UTC+00:00)

Cosmos 2322 Rocket - Pass Details

Date: 10 December 2019
Orbit: 831 x 852 km, 71.0° (Epoch: 23 January)

Event Time Altitude Azimuth Distance (km) Brightness Sun altitude
Exits shadow 14:59:57 42° 346° (NNW) 1,209 2.6 -21.7°
Maximum altitude 15:02:01 85° 70° (ENE) 865 2.2 -21.4°
Drops below altitude 10° 15:07:47 10° 158° (SSE) 2,496 5.7 -20.6°
Sets 15:10:14 0° 158° (SSE) 3,435 6.6 -20.2°
